• In Uzbekistan
  • List of Countries
  • For 7 days
  • Water Temperature
  • Satellite Maps
  • Weather Map
  • Weather Widgets
  • user-avatar
    Login

    Hourly Weather Gweru

    Today, 20 January, Sunday

    Time Temperature Precipitation Wind Pressure Humidity
    00:00 +20°C° 0.1 mm 4 mps 644 mmHg 88%
    01:00 +20°C° 0.1 mm 5 mps 644 mmHg 89%
    02:00 +20°C° 0.1 mm 5 mps 644 mmHg 91%
    03:00 +19°C° 0.1 mm 5 mps 644 mmHg 91%
    04:00 +19°C° 0.1 mm 6 mps 644 mmHg 90%
    05:00 +19°C° 0.1 mm 6 mps 644 mmHg 90%
    06:00 +19°C° 0.1 mm 6 mps 645 mmHg 89%
    07:00 +18°C° 0.1 mm 7 mps 645 mmHg 87%
    08:00 +18°C° 0.1 mm 7 mps 645 mmHg 85%
    09:00 +19°C° 0.2 mm 6 mps 646 mmHg 85%
    10:00 +19°C° 0.2 mm 6 mps 646 mmHg 84%
    11:00 +19°C° 0.2 mm 6 mps 646 mmHg 84%
    12:00 +19°C° 0.1 mm 6 mps 646 mmHg 83%
    13:00 +19°C° 0.1 mm 6 mps 645 mmHg 83%
    14:00 +19°C° 0.1 mm 6 mps 645 mmHg 83%
    15:00 +19°C° 0 mm 6 mps 645 mmHg 84%
    16:00 +17°C° 0 mm 6 mps 645 mmHg 84%
    17:00 +17°C° 0 mm 6 mps 644 mmHg 85%
    18:00 +16°C° 0 mm 6 mps 645 mmHg 86%
    19:00 +16°C° 0 mm 6 mps 645 mmHg 87%
    20:00 +16°C° 0 mm 6 mps 646 mmHg 87%
    21:00 +15°C° 0 mm 5 mps 646 mmHg 87%
    22:00 +15°C° 0 mm 5 mps 646 mmHg 86%
    23:00 +15°C° 0 mm 5 mps 646 mmHg 86%

    Tomorrow, 21 January, Monday

    Time Temperature Precipitation Wind Pressure Humidity
    00:00 +15°C° 0 mm 5 mps 646 mmHg 86%
    01:00 +14°C° 0 mm 5 mps 646 mmHg 86%
    02:00 +14°C° 0 mm 6 mps 645 mmHg 87%
    03:00 +13°C° 0 mm 6 mps 645 mmHg 86%
    04:00 +13°C° 0 mm 6 mps 645 mmHg 86%
    05:00 +11°C° 0 mm 6 mps 645 mmHg 86%
    06:00 +13°C° 0 mm 6 mps 646 mmHg 85%
    07:00 +13°C° 0 mm 6 mps 646 mmHg 85%
    08:00 +13°C° 0 mm 6 mps 646 mmHg 85%
    09:00 +15°C° 0 mm 5 mps 647 mmHg 79%
    10:00 +17°C° 0 mm 5 mps 647 mmHg 74%
    11:00 +19°C° 0 mm 5 mps 647 mmHg 68%
    12:00 +20°C° 0 mm 5 mps 646 mmHg 67%
    13:00 +20°C° 0 mm 5 mps 646 mmHg 65%
    14:00 +21°C° 0 mm 4 mps 645 mmHg 63%
    15:00 +21°C° 0 mm 4 mps 645 mmHg 64%
    16:00 +20°C° 0 mm 4 mps 644 mmHg 66%
    17:00 +20°C° 0 mm 4 mps 644 mmHg 67%
    18:00 +19°C° 0 mm 4 mps 644 mmHg 73%
    19:00 +17°C° 0 mm 3 mps 644 mmHg 80%
    20:00 +16°C° 0 mm 3 mps 644 mmHg 86%
    21:00 +16°C° 0 mm 2 mps 644 mmHg 88%
    22:00 +15°C° 0 mm 2 mps 644 mmHg 90%
    23:00 +15°C° 0 mm 2 mps 645 mmHg 91%

    Day after tomorrow, 22 January, Tuesday

    Time Temperature Precipitation Wind Pressure Humidity
    00:00 +15°C° 0 mm 2 mps 644 mmHg 92%
    01:00 +15°C° 0 mm 2 mps 643 mmHg 93%
    02:00 +14°C° 0 mm 2 mps 643 mmHg 94%
    03:00 +14°C° 0 mm 2 mps 643 mmHg 94%
    04:00 +14°C° 0 mm 2 mps 643 mmHg 94%
    05:00 +14°C° 0 mm 2 mps 643 mmHg 95%
    06:00 +15°C° 0 mm 2 mps 643 mmHg 87%
    07:00 +17°C° 0 mm 3 mps 644 mmHg 80%
    08:00 +19°C° 0 mm 3 mps 644 mmHg 72%
    09:00 +20°C° 0 mm 4 mps 644 mmHg 62%
    10:00 +22°C° 0 mm 4 mps 645 mmHg 52%
    11:00 +25°C° 0 mm 4 mps 645 mmHg 42%
    12:00 +26°C° 0 mm 4 mps 644 mmHg 38%
    13:00 +27°C° 0 mm 4 mps 644 mmHg 35%
    14:00 +28°C° 0 mm 4 mps 643 mmHg 31%
    15:00 +27°C° 0 mm 4 mps 643 mmHg 33%
    16:00 +27°C° 0 mm 3 mps 643 mmHg 34%
    17:00 +26°C° 0 mm 3 mps 642 mmHg 36%
    18:00 +24°C° 0 mm 3 mps 642 mmHg 41%
    19:00 +21°C° 0 mm 3 mps 642 mmHg 46%
    20:00 +19°C° 0 mm 2 mps 642 mmHg 51%
    21:00 +18°C° 0 mm 2 mps 642 mmHg 52%
    22:00 +18°C° 0 mm 2 mps 642 mmHg 53%
    23:00 +17°C° 0 mm 2 mps 642 mmHg 54%

    23 January, Wednesday

    Time Temperature Precipitation Wind Pressure Humidity
    00:00 +18°C° 0 mm 1 mps 641 mmHg 54%
    01:00 +16°C° 0 mm 1 mps 641 mmHg 53%
    02:00 +16°C° 0 mm 1 mps 640 mmHg 53%
    03:00 +15°C° 0 mm 1 mps 640 mmHg 53%
    04:00 +15°C° 0 mm 1 mps 640 mmHg 54%
    05:00 +15°C° 0 mm 1 mps 640 mmHg 55%
    06:00 +18°C° 0 mm 1 mps 641 mmHg 53%
    07:00 +19°C° 0 mm 2 mps 642 mmHg 52%
    08:00 +20°C° 0 mm 2 mps 643 mmHg 51%
    09:00 +22°C° 0 mm 3 mps 643 mmHg 47%
    10:00 +25°C° 0 mm 3 mps 643 mmHg 43%
    11:00 +27°C° 0 mm 4 mps 644 mmHg 39%
    12:00 +28°C° 0 mm 4 mps 643 mmHg 37%
    13:00 +29°C° 0 mm 4 mps 643 mmHg 34%
    14:00 +29°C° 0 mm 4 mps 642 mmHg 32%
    15:00 +29°C° 0 mm 4 mps 642 mmHg 33%
    16:00 +28°C° 0 mm 4 mps 642 mmHg 35%
    17:00 +28°C° 0 mm 4 mps 641 mmHg 36%
    18:00 +26°C° 0 mm 4 mps 641 mmHg 44%
    19:00 +24°C° 0 mm 3 mps 641 mmHg 53%
    20:00 +20°C° 0 mm 3 mps 641 mmHg 61%
    21:00 +19°C° 0 mm 2 mps 641 mmHg 65%
    22:00 +19°C° 0 mm 2 mps 641 mmHg 68%
    23:00 +19°C° 0 mm 1 mps 642 mmHg 72%

    24 January, Thursday

    Time Temperature Precipitation Wind Pressure Humidity
    00:00 +18°C° 0 mm 1 mps 641 mmHg 73%
    01:00 +18°C° 0 mm 1 mps 641 mmHg 74%
    02:00 +16°C° 0 mm 1 mps 640 mmHg 75%
    03:00 +16°C° 0 mm 1 mps 640 mmHg 75%
    04:00 +16°C° 0 mm 1 mps 640 mmHg 74%
    05:00 +16°C° 0 mm 1 mps 641 mmHg 74%
    06:00 +17°C° 0 mm 2 mps 641 mmHg 70%
    07:00 +19°C° 0 mm 2 mps 642 mmHg 66%
    08:00 +21°C° 0 mm 3 mps 643 mmHg 61%
    09:00 +22°C° 0 mm 3 mps 643 mmHg 55%
    10:00 +25°C° 0 mm 3 mps 644 mmHg 49%
    11:00 +27°C° 0 mm 4 mps 644 mmHg 42%
    12:00 +28°C° 0 mm 4 mps 644 mmHg 39%
    13:00 +28°C° 0 mm 4 mps 643 mmHg 35%
    14:00 +29°C° 0 mm 4 mps 643 mmHg 32%
    15:00 +29°C° 0 mm 4 mps 643 mmHg 34%
    16:00 +28°C° 0 mm 4 mps 642 mmHg 36%
    17:00 +28°C° 0 mm 4 mps 642 mmHg 39%
    18:00 +26°C° 0 mm 4 mps 642 mmHg 49%
    19:00 +23°C° 0 mm 4 mps 642 mmHg 60%
    20:00 +21°C° 0 mm 3 mps 643 mmHg 70%
    21:00 +20°C° 0 mm 3 mps 643 mmHg 76%
    22:00 +20°C° 0 mm 3 mps 643 mmHg 81%
    23:00 +19°C° 0 mm 3 mps 644 mmHg 86%

    25 January, Friday

    Time Temperature Precipitation Wind Pressure Humidity
    00:00 +19°C° 0 mm 3 mps 644 mmHg 88%
    01:00 +18°C° 0 mm 3 mps 643 mmHg 90%
    02:00 +18°C° 0 mm 3 mps 643 mmHg 91%
    03:00 +18°C° 0 mm 3 mps 643 mmHg 92%
    04:00 +18°C° 0 mm 3 mps 643 mmHg 94%
    05:00 +18°C° 0 mm 4 mps 643 mmHg 95%
    06:00 +18°C° 0 mm 4 mps 644 mmHg 91%
    07:00 +19°C° 0 mm 4 mps 644 mmHg 87%
    08:00 +19°C° 0 mm 4 mps 645 mmHg 82%
    09:00 +22°C° 0 mm 4 mps 645 mmHg 71%
    10:00 +25°C° 0 mm 4 mps 646 mmHg 60%
    11:00 +27°C° 0 mm 3 mps 646 mmHg 49%
    12:00 +28°C° 0 mm 4 mps 646 mmHg 45%
    13:00 +30°C° 0 mm 4 mps 645 mmHg 42%
    14:00 +32°C° 0 mm 4 mps 645 mmHg 38%
    15:00 +30°C° 0 mm 4 mps 645 mmHg 40%
    16:00 +29°C° 0 mm 4 mps 644 mmHg 42%
    17:00 +29°C° 0 mm 4 mps 644 mmHg 44%
    18:00 +27°C° 0 mm 4 mps 644 mmHg 51%
    19:00 +25°C° 0 mm 4 mps 644 mmHg 58%
    20:00 +22°C° 0 mm 3 mps 644 mmHg 65%
    21:00 +21°C° 0 mm 3 mps 644 mmHg 69%
    22:00 +20°C° 0 mm 3 mps 644 mmHg 73%
    23:00 +19°C° 0 mm 2 mps 645 mmHg 76%
    Show more